Flag for U.S.A. Weather past 2 weeks in Anchorage, Alaska, U.S.A.

Now
61 °F

Clear.


Feels Like: 61 °F
Forecast: 61 / 72 °F
Wind: 5 mph from South

Location: Lake Hood Seaplane

Current Time: Aug 2, 2015 at 4:48:39 AM

Latest Report: Aug 2, 2015 at 3:53 AM


Visibility: 10 mi

Pressure: 30.09 "Hg

Humidity: 78%

Dew point: 54 °F

Location of AnchorageLocation

Historic Weather in Anchorage — Graph

°F

Anchorage temperature yesterday

Maximum temperature yesterday: 76 °F (at 3:53 PM)
Minimum temperature yesterday: 58 °F (at 4:53 AM)
Average temperature yesterday: 67 °F

Past Weeks' High & Low Weather Summary

 TemperatureHumidityPressure
High76 °F (Aug 1, 3:53 PM)94% (Jul 25, 10:59 PM)30.21 "Hg (Jul 25, 10:59 PM)
Low52 °F (Jul 19, 5:53 AM)33% (Aug 1, 6:53 PM)29.55 "Hg (Jul 22, 8:53 PM)
Average62 °F70%29.90 "Hg
* Reported Jul 18 3:53 AM — Aug 2 3:53 AM, Anchorage, Weather by CustomWeather, © 2015

Note: Actual official high and low records may vary slightly from our data, if they occured in-between our weather recording intervals... More about our weather records

Advertising

Anchorage weather history for previous 24 hours

 ConditionsComfort  
Time TempWeatherWind HumidityBarometerVisibility
3:53 AM
Sun, Aug 2
61 °FClear.5 mph78%30.09 "Hg10 mi
2:53 AM62 °FClear.8 mph73%30.09 "Hg10 mi
1:53 AM64 °FClear.6 mph70%30.08 "Hg10 mi
12:53 AM65 °FPassing clouds.No wind63%30.06 "Hg10 mi
11:53 PM
Sat, Aug 1
65 °FClear.No wind68%30.06 "Hg10 mi
10:53 PM65 °FSunny.5 mph70%30.06 "Hg10 mi
9:53 PM67 °FSunny.5 mph61%30.05 "Hg10 mi
8:53 PM70 °FSunny.7 mph47%30.05 "Hg10 mi
7:53 PM74 °FSunny.6 mph35%30.04 "Hg10 mi
6:53 PM76 °FSunny.7 mph33%30.04 "Hg10 mi
5:53 PM75 °FSunny.7 mph40%30.04 "Hg10 mi
4:53 PM76 °FSunny.6 mph36%30.04 "Hg10 mi
3:53 PM76 °FSunny.7 mph39%30.05 "Hg10 mi
2:53 PM75 °FSunny.3 mph37%30.06 "Hg10 mi
1:53 PM75 °FSunny.5 mph40%30.07 "Hg10 mi
12:53 PM72 °FSunny.6 mph41%30.08 "Hg10 mi
11:53 AM70 °FSunny.No wind53%30.08 "Hg10 mi
10:53 AM66 °FPassing clouds.5 mph65%30.08 "Hg10 mi
9:53 AM64 °FSunny.6 mph70%30.08 "Hg10 mi
8:53 AM62 °FSunny.3 mph75%30.07 "Hg10 mi
7:53 AM60 °FSunny.3 mph80%30.07 "Hg10 mi
6:53 AM58 °FSunny.3 mph84%30.06 "Hg10 mi
5:53 AM58 °FClear.3 mph84%30.06 "Hg10 mi
4:53 AM58 °FPassing clouds.No wind87%30.06 "Hg10 mi
Weather by CustomWeather, © 2015

See weather overviewHow to use our weather pages